When you browse on this site, cookies collect data to enhance your experience and personalize the content and advertising you see.
Visit our Privacy Policy to learn more. By continuing to use the site, you agree to this use of cookies and data.

Tiempo cada hora Spasskoe-Krivcovo

Hoy, 14 Agosto, Viernes

Tiempo Temperatura Precipitaciones Viento Presión Humedad
00:00 +11°C° 0.2 mm 4 mps 740 mmHg 92%
01:00 +11°C° 0.2 mm 4 mps 740 mmHg 93%
02:00 +12°C° 0 mm 3 mps 740 mmHg 96%
03:00 +12°C° 0.3 mm 3 mps 740 mmHg 96%
04:00 +12°C° 0.3 mm 3 mps 740 mmHg 95%
05:00 +12°C° 0.3 mm 3 mps 741 mmHg 95%
06:00 +12°C° 0.1 mm 4 mps 741 mmHg 93%
07:00 +12°C° 0.1 mm 4 mps 741 mmHg 90%
08:00 +13°C° 0 mm 4 mps 741 mmHg 88%
09:00 +14°C° 0 mm 4 mps 741 mmHg 78%
10:00 +15°C° 0 mm 5 mps 741 mmHg 69%
11:00 +17°C° 0 mm 5 mps 741 mmHg 59%
12:00 +17°C° 0.1 mm 5 mps 741 mmHg 59%
13:00 +16°C° 0.1 mm 5 mps 741 mmHg 60%
14:00 +16°C° 0.1 mm 5 mps 741 mmHg 60%
15:00 +16°C° 0.1 mm 5 mps 741 mmHg 62%
16:00 +16°C° 0.1 mm 5 mps 741 mmHg 64%
17:00 +15°C° 0.1 mm 4 mps 741 mmHg 66%
18:00 +14°C° 0 mm 4 mps 742 mmHg 70%
19:00 +13°C° 0 mm 3 mps 742 mmHg 75%
20:00 +12°C° 0 mm 2 mps 742 mmHg 79%
21:00 +12°C° 0 mm 2 mps 742 mmHg 81%
22:00 +10°C° 0 mm 2 mps 742 mmHg 83%
23:00 +10°C° 0 mm 2 mps 743 mmHg 84%

Mañana, 15 Agosto, Sábado

Tiempo Temperatura Precipitaciones Viento Presión Humedad
00:00 +10°C° 0 mm 2 mps 743 mmHg 85%
01:00 +9°C° 0 mm 2 mps 743 mmHg 87%
02:00 +9°C° 0 mm 2 mps 743 mmHg 88%
03:00 +9°C° 0 mm 2 mps 743 mmHg 88%
04:00 +9°C° 0 mm 2 mps 743 mmHg 89%
05:00 +9°C° 0 mm 2 mps 743 mmHg 90%
06:00 +10°C° 0 mm 3 mps 743 mmHg 84%
07:00 +12°C° 0 mm 3 mps 743 mmHg 78%
08:00 +14°C° 0 mm 3 mps 743 mmHg 71%
09:00 +16°C° 0 mm 3 mps 743 mmHg 66%
10:00 +17°C° 0 mm 3 mps 743 mmHg 60%
11:00 +18°C° 0 mm 3 mps 744 mmHg 55%
12:00 +19°C° 0 mm 3 mps 743 mmHg 54%
13:00 +19°C° 0 mm 3 mps 743 mmHg 54%
14:00 +19°C° 0 mm 3 mps 743 mmHg 53%
15:00 +19°C° 0 mm 3 mps 743 mmHg 57%
16:00 +19°C° 0 mm 3 mps 743 mmHg 61%
17:00 +19°C° 0 mm 3 mps 743 mmHg 64%
18:00 +17°C° 0 mm 2 mps 743 mmHg 69%
19:00 +16°C° 0 mm 2 mps 742 mmHg 74%
20:00 +15°C° 0 mm 2 mps 742 mmHg 79%
21:00 +14°C° 0 mm 2 mps 742 mmHg 80%
22:00 +14°C° 0 mm 2 mps 742 mmHg 81%
23:00 +14°C° 0 mm 2 mps 743 mmHg 83%

Pasado mañana, 16 Agosto, Domingo

Tiempo Temperatura Precipitaciones Viento Presión Humedad
00:00 +14°C° 0.1 mm 2 mps 742 mmHg 84%
01:00 +14°C° 0.1 mm 1 mps 742 mmHg 84%
02:00 +14°C° 0.1 mm 1 mps 742 mmHg 85%
03:00 +14°C° 0.6 mm 1 mps 742 mmHg 88%
04:00 +13°C° 0.6 mm 1 mps 742 mmHg 90%
05:00 +13°C° 0.6 mm 2 mps 741 mmHg 93%
06:00 +14°C° 0.2 mm 2 mps 741 mmHg 90%
07:00 +15°C° 0.2 mm 2 mps 741 mmHg 87%
08:00 +16°C° 0.2 mm 2 mps 741 mmHg 84%
09:00 +17°C° 0 mm 2 mps 741 mmHg 79%
10:00 +18°C° 0 mm 2 mps 741 mmHg 74%
11:00 +19°C° 0 mm 2 mps 741 mmHg 69%
12:00 +20°C° 0 mm 2 mps 741 mmHg 64%
13:00 +21°C° 0 mm 2 mps 741 mmHg 60%
14:00 +22°C° 0 mm 3 mps 741 mmHg 55%
15:00 +23°C° 0 mm 2 mps 741 mmHg 58%
16:00 +23°C° 0 mm 2 mps 740 mmHg 60%
17:00 +23°C° 0 mm 1 mps 740 mmHg 63%
18:00 +21°C° 0 mm 1 mps 740 mmHg 67%
19:00 +20°C° 0 mm 1 mps 740 mmHg 71%
20:00 +18°C° 0 mm 1 mps 740 mmHg 75%
21:00 +17°C° 0 mm 2 mps 740 mmHg 79%
22:00 +16°C° 0 mm 2 mps 740 mmHg 82%
23:00 +16°C° 0 mm 2 mps 740 mmHg 85%

17 Agosto, Lunes

Tiempo Temperatura Precipitaciones Viento Presión Humedad
00:00 +16°C° 0 mm 3 mps 740 mmHg 88%
01:00 +14°C° 0 mm 3 mps 740 mmHg 91%
02:00 +14°C° 0 mm 3 mps 740 mmHg 93%
03:00 +14°C° 0 mm 3 mps 740 mmHg 93%
04:00 +14°C° 0 mm 3 mps 740 mmHg 93%
05:00 +14°C° 0 mm 3 mps 740 mmHg 93%
06:00 +17°C° 0 mm 4 mps 740 mmHg 87%
07:00 +18°C° 0 mm 4 mps 740 mmHg 81%
08:00 +20°C° 0 mm 5 mps 740 mmHg 75%
09:00 +22°C° 0.2 mm 5 mps 740 mmHg 69%
10:00 +23°C° 0.2 mm 6 mps 740 mmHg 63%
11:00 +24°C° 0.2 mm 6 mps 740 mmHg 58%
12:00 +26°C° 0.1 mm 6 mps 739 mmHg 57%
13:00 +26°C° 0.1 mm 6 mps 739 mmHg 56%
14:00 +26°C° 0.1 mm 6 mps 739 mmHg 55%
15:00 +25°C° 0.3 mm 5 mps 739 mmHg 61%
16:00 +23°C° 0.3 mm 4 mps 739 mmHg 66%
17:00 +22°C° 0.3 mm 3 mps 739 mmHg 72%
18:00 +21°C° 0 mm 3 mps 739 mmHg 77%
19:00 +20°C° 0 mm 3 mps 739 mmHg 81%
20:00 +18°C° 0 mm 2 mps 739 mmHg 86%
21:00 +18°C° 0 mm 2 mps 739 mmHg 88%
22:00 +17°C° 0 mm 2 mps 739 mmHg 90%
23:00 +17°C° 0 mm 2 mps 739 mmHg 92%

18 Agosto, Martes

Tiempo Temperatura Precipitaciones Viento Presión Humedad
00:00 +17°C° 0 mm 2 mps 740 mmHg 92%
01:00 +16°C° 0 mm 1 mps 740 mmHg 93%
02:00 +16°C° 0 mm 1 mps 740 mmHg 93%
03:00 +16°C° 0 mm 1 mps 740 mmHg 93%
04:00 +16°C° 0 mm 1 mps 739 mmHg 93%
05:00 +15°C° 0 mm 0 mps 739 mmHg 93%
06:00 +18°C° 0 mm 1 mps 739 mmHg 88%
07:00 +20°C° 0 mm 1 mps 740 mmHg 83%
08:00 +21°C° 0 mm 1 mps 740 mmHg 79%
09:00 +22°C° 0.2 mm 1 mps 740 mmHg 72%
10:00 +23°C° 0.2 mm 2 mps 740 mmHg 66%
11:00 +24°C° 0.2 mm 2 mps 739 mmHg 60%
12:00 +25°C° 0 mm 2 mps 739 mmHg 58%
13:00 +25°C° 0 mm 2 mps 739 mmHg 55%
14:00 +25°C° 0 mm 3 mps 739 mmHg 53%
15:00 +25°C° 0 mm 2 mps 739 mmHg 57%
16:00 +24°C° 0 mm 2 mps 739 mmHg 60%
17:00 +24°C° 0 mm 2 mps 739 mmHg 64%
18:00 +21°C° 0 mm 2 mps 739 mmHg 68%
19:00 +20°C° 0 mm 2 mps 739 mmHg 71%
20:00 +18°C° 0 mm 2 mps 739 mmHg 75%
21:00 +18°C° 0 mm 2 mps 739 mmHg 77%
22:00 +17°C° 0 mm 2 mps 739 mmHg 79%
23:00 +17°C° 0 mm 2 mps 739 mmHg 81%

19 Agosto, Miércoles

Tiempo Temperatura Precipitaciones Viento Presión Humedad
00:00 +16°C° 0 mm 2 mps 739 mmHg 81%
01:00 +16°C° 0 mm 2 mps 739 mmHg 80%
02:00 +15°C° 0 mm 2 mps 739 mmHg 80%
03:00 +15°C° 0 mm 2 mps 739 mmHg 80%
04:00 +15°C° 0 mm 2 mps 739 mmHg 81%
05:00 +15°C° 0 mm 2 mps 739 mmHg 81%
06:00 +17°C° 0 mm 2 mps 739 mmHg 77%
07:00 +18°C° 0 mm 2 mps 739 mmHg 72%
08:00 +20°C° 0 mm 3 mps 739 mmHg 68%
09:00 +21°C° 0 mm 3 mps 739 mmHg 64%
10:00 +24°C° 0 mm 3 mps 739 mmHg 59%
11:00 +25°C° 0 mm 3 mps 739 mmHg 55%
12:00 +26°C° 0 mm 3 mps 739 mmHg 55%
13:00 +26°C° 0 mm 3 mps 738 mmHg 54%
14:00 +26°C° 0 mm 3 mps 738 mmHg 54%
15:00 +26°C° 0.1 mm 3 mps 738 mmHg 57%
16:00 +26°C° 0.1 mm 2 mps 738 mmHg 61%
17:00 +25°C° 0.1 mm 2 mps 737 mmHg 64%
18:00 +24°C° 0.1 mm 2 mps 737 mmHg 68%
19:00 +21°C° 0.1 mm 2 mps 737 mmHg 72%
20:00 +20°C° 0.1 mm 3 mps 737 mmHg 77%
21:00 +19°C° 0 mm 3 mps 737 mmHg 78%
22:00 +19°C° 0 mm 3 mps 737 mmHg 79%
23:00 +18°C° 0 mm 3 mps 737 mmHg 80%
Mostrar más